Regional Weather Roundup
Issued by NWS

Home | Current Version | Previous Version | Graphics & Text | Print | Product List | Glossary On
Versions: 1 2 3 4 5 6 7 8 9 10 11 12 13 14 15 16 17 18 19 20 21 22 23 24 25 26 27 28 29 30 31 32 33 34 35 36 37 38 39 40 41 42 43 44 45 46 47 48 49 50
000
ASUS45 KSLC 011410
RWRUT

UTAH REGIONAL WEATHER ROUNDUP
NATIONAL WEATHER SERVICE SALT LAKE CITY UT
800 AM MDT MON SEP 01 2014

UTZ001>011-023>025-011500-

NORTHERN UTAH

CITY           SKY/WX    TMP DP  RH WIND       PRES   REMARKS
HILL AFB       SUNNY     53  35  50 E14       30.07R
LOGAN          SUNNY     49  44  83 CALM      30.09R
OGDEN          SUNNY     55  35  47 S8        30.06R
PROVO AIRPORT  SUNNY     52  43  71 CALM      30.09R
SALT LAKE CITY SUNNY     60  42  51 SE5       30.05R
VERNAL         SUNNY     53  37  54 CALM      30.10R
WENDOVER       PTCLDY    61  37  41 CALM      30.07R
HEBER CITY     SUNNY     43  37  81 CALM      30.14R
WEST JORDAN    SUNNY     61  48  63 S6        30.08R

$$

UTZ012>022-026-027-011500-

SOUTHERN UTAH

CITY           SKY/WX    TMP DP  RH WIND       PRES   REMARKS
BRYCE CANYON   SUNNY     45  37  73 CALM      30.23R
CEDAR CITY     SUNNY     53  38  56 NW3       30.10R
MILFORD        SUNNY     57  39  51 W6        30.07R
MOAB/CYNLANDS  SUNNY     59  37  44 CALM      30.02R
PRICE          SUNNY     57  35  43 CALM      30.11R
ST GEORGE      SUNNY     72  37  28 N3        29.95R
KANAB            N/A     55  37  50 N7        30.12R

$$

REGIONAL REPORTS     COLORADO/ARIZONA

CITY           SKY/WX    TMP DP  RH WIND       PRES   REMARKS
CRAIG, CO      SUNNY     46  42  86 CALM      30.16R
GRAND JUNCTION SUNNY     57  40  52 SE9       30.06R
RIFLE          SUNNY     50  41  71 CALM      30.14R
MONTROSE       SUNNY     55  39  54 S7        30.14R
CORTEZ         SUNNY     52  40  63 NE5       30.15R
PAGE, AZ       SUNNY     75  33  21 NW3       30.02R
GRAND CANYON   SUNNY     52  41  66 VRB5      30.24R
KINGMAN        CLEAR     73  46  38 SE9       29.97R
FLAGSTAFF      SUNNY     53  44  71 CALM      30.26R

$$

REGIONAL REPORTS    NEVADA/IDAHO/WYOMING

CITY           SKY/WX    TMP DP  RH WIND       PRES   REMARKS
LAS VEGAS, NV  CLEAR     79  37  22 SW7       29.81R
ELY            CLEAR     45  33  63 S13       30.17R
ELKO           CLEAR     43  32  65 SE3       30.13R
POCATELLO, ID  SUNNY     53  42  66 SW14      30.09R
BURLEY         SUNNY     52  43  71 W8        30.07R
EVANSTON, WY   MOSUNNY   45  32  60 SW6       30.16S
ROCK SPRINGS   MOSUNNY   47  33  58 CALM      30.14R

$$


USA.gov is the U.S. government's official web portal to all federal, state and local government web resources and services.